Weather History for Charlotte, NC

Change the Weather History Date:

Thursday, January 23, 2014

  Actual Average Record
Temperature  
Mean Temperature 29 °F 40 °F  
Max Temperature 41 °F 51 °F 75 °F (1927)
Min Temperature 17 °F 30 °F 9 °F (2003)
Degree Days  
Heating Degree Days 36 25  
Month to date heating degree days 631 575  
Since 1 July heating degree days 1858 1912  
Cooling Degree Days 0 0  
Month to date cooling degree days 0 0  
Year to date cooling degree days 0 0  
Moisture  
Dew Point 5 °F    
Average Humidity 45    
Maximum Humidity 67    
Minimum Humidity 23    
Precipitation  
Precipitation 0.00 in 0.11 in 1.48 in (1940)
Month to date precipitation 2.80 2.57  
Year to date precipitation 2.80 2.57  
Snow  
Snow 0.00 in 0.10 in 8.50 in (2003)
Month to date snowfall 0.0 1.6  
Since 1 July snowfall T 2.0  
Snow Depth 0.00 in    
Sea Level Pressure  
Sea Level Pressure 30.26 in    
Wind  
Wind Speed 7 mph (NW)    
Max Wind Speed 17 mph    
Max Gust Speed 24 mph    
Visibility 10 miles    
Events      
T = Trace of Precipitation, MM = Missing Value Source: NWS Daily Summary

Daily Weather History Graph

Daily Weather History Graph

Search for Another Location

Airport:

Trip Planner

Search our weather history database for the weather conditions in past years. The results will help you decide how hot, cold, wet, or windy it might be!

Date:

Astronomy

Jan. 23, 2014 Rise Set
Actual Time 7:28 AM EST 5:43 PM EST
Civil Twilight 7:01 AM EST 6:10 PM EST
Nautical Twilight 6:30 AM EST 6:40 PM EST
Astronomical Twilight 6:00 AM EST 7:11 PM EST
Moon No Moon Rise 11:20 AM EST (1/23)
Length of Visible Light 11h 08m
Length of Day
10h 14m
Waning Gibbous, 55% of the Moon is Illuminated
Jan 23
Waning Gibbous
Jan 24
Last Quarter
Jan 30
New
Feb 6
First Quarter
Feb 14
Full

Hourly Weather History & Observations

Time (EST) Temp. Windchill Dew Point Humidity Pressure Visibility Wind Dir Wind Speed Gust Speed Precip Events Conditions
12:52 AM 23.0 °F 17.0 °F 8.1 °F 53% 30.10 in 10.0 mi WNW 4.6 mph - N/A   Clear
1:52 AM 23.0 °F 14.7 °F 6.1 °F 48% 30.12 in 10.0 mi NNW 6.9 mph - N/A   Clear
2:52 AM 21.9 °F 12.5 °F 6.1 °F 51% 30.13 in 10.0 mi NNW 8.1 mph - N/A   Partly Cloudy
3:52 AM 23.0 °F 18.4 °F 5.0 °F 46% 30.16 in 10.0 mi NNW 3.5 mph - N/A   Mostly Cloudy
4:52 AM 21.9 °F 17.2 °F 5.0 °F 48% 30.17 in 10.0 mi NNW 3.5 mph - N/A   Overcast
5:52 AM 21.9 °F 17.2 °F 5.0 °F 48% 30.19 in 10.0 mi NNW 3.5 mph - N/A   Overcast
6:52 AM 21.0 °F 16.2 °F 10.0 °F 63% 30.23 in 10.0 mi WSW 3.5 mph - N/A   Overcast
7:52 AM 19.0 °F - 10.0 °F 68% 30.24 in 10.0 mi Calm Calm - N/A   Mostly Cloudy
8:52 AM 28.0 °F - 9.0 °F 45% 30.26 in 10.0 mi Calm Calm - N/A   Mostly Cloudy
9:52 AM 28.9 °F 25.2 °F 8.1 °F 41% 30.30 in 10.0 mi WNW 3.5 mph - N/A   Mostly Cloudy
10:52 AM 33.1 °F 25.5 °F 8.1 °F 35% 30.31 in 10.0 mi SW 9.2 mph - N/A   Mostly Cloudy
11:52 AM 35.1 °F 27.4 °F 8.1 °F 33% 30.28 in 10.0 mi WNW 10.4 mph 19.6 mph N/A   Mostly Cloudy
12:52 PM 39.0 °F 33.4 °F 7.0 °F 27% 30.25 in 10.0 mi West 8.1 mph - N/A   Mostly Cloudy
1:52 PM 39.9 °F 33.4 °F 6.1 °F 25% 30.24 in 10.0 mi WNW 10.4 mph 19.6 mph N/A   Mostly Cloudy
2:52 PM 39.9 °F 32.9 °F 5.0 °F 23% 30.24 in 10.0 mi West 11.5 mph 17.3 mph N/A   Mostly Cloudy
3:52 PM 39.9 °F 34.5 °F 5.0 °F 23% 30.24 in 10.0 mi West 8.1 mph - N/A   Scattered Clouds
4:52 PM 37.9 °F 32.1 °F 6.1 °F 27% 30.26 in 10.0 mi SW 8.1 mph - N/A   Mostly Cloudy
5:52 PM 35.1 °F 30.1 °F 7.0 °F 31% 30.29 in 10.0 mi West 5.8 mph - N/A   Scattered Clouds
6:52 PM 33.1 °F 26.1 °F 3.0 °F 28% 30.33 in 10.0 mi NNW 8.1 mph - N/A   Mostly Cloudy
7:52 PM 30.0 °F 23.2 °F 1.9 °F 30% 30.35 in 10.0 mi NNW 6.9 mph - N/A   Partly Cloudy
8:52 PM 28.9 °F 19.8 °F 1.0 °F 30% 30.37 in 10.0 mi NNW 10.4 mph - N/A   Clear
9:52 PM 27.0 °F 17.3 °F -0.9 °F 30% 30.40 in 10.0 mi NNW 10.4 mph 17.3 mph N/A   Partly Cloudy
10:52 PM 25.0 °F 15.5 °F -0.0 °F 34% 30.41 in 10.0 mi North 9.2 mph 21.9 mph N/A   Partly Cloudy
11:52 PM 24.1 °F 13.7 °F -2.0 °F 32% 30.43 in 10.0 mi NNW 10.4 mph - N/A   Mostly Cloudy